Showing default

GHOST-3, 56958

Orbit data source: Space-Track

GHOST-3, 56958 is a payload satellite owned by Orbital Sidekick (US) in SSO that was launched on Mon, 12 Jun 2023 UTC via an FALCON 9 launch vehicle from the Air Force Western Test Range (AFWTR). Payload-class satellites include a variety of spacecraft equipped with specific instruments for various scientific and technological missions. These include communications satellites like Starlink; space stations such as the ISS; scientific satellites like the Hubble; Earth observation satellites from companies like Planet Labs, Umbra, and HawkEye 360; GPS; miniature CubeSats for education and research; and military/defense satellites.

Loading next visibility...
Identifier
56958, 2023-084AC
Orbit
SSO
Country
Flag of USUS
Related business
Manufacturer
Astro Digital
Mission
Operational Commercial Imaging
Bus & Motor
CORVUS-XL, Unknown motor
Mass
85 kg wet, 85 kg dry
Launch date (UTC)
2023-06-12 (3 years ago)
Launch vehicle
FALCON 9
Launch site
Air Force Western Test Range (AFWTR)
Object type
Payload
Rocket body
Debris
Shape & HBR
Box + 1 Dish, 1.0 m
Radar Cross Section
0.425 m², Medium (>0.1 m² and < 1m²)

Expand to show TLE details & history
Last TLE update: 6 hours ago

TLE from 6 hours ago
0 GHOST-3
1 56958U 23084AC  26111.95105686  .00017592  00000-0  36228-3 0  9999
2 56958  97.6149 257.6149 0007521 137.2355 222.9480 15.45968256159324
Epoch: 2026-04-21T22:49Z
TLE epoch observation values (Epoch: 2026-04-21T22:49:31.312Z)
Latitude
-0.00003°
Longitude
65.21496°
Altitude
435.404 km
Speed
7.648 km/s
True Right ascension
17h 10m 27s
True Declination
0° 00' 00"
Sunlit
Object was in full shadow at epoch
Visualization orbit readout
Latitude
Unknown
Longitude
Unknown
Altitude
Unknown
Speed
Unknown
Apparent Right ascension
Unknown
Apparent Declination
Unknown
Sunlit
N/A
Visualization observer readout
Local Sidereal Time
12:10:48
Azimuth
Unknown
Elevation
Unknown
Doppler factor
Unknown
Orbital elements
Apogee altitude
430.592 km
Perigee altitude
420.358 km
Semi-major axis
6,803.612 km
Eccentricity
0.00075
Inclination
97.6149°
RAAN
257.6149°
Arg. of periapsis
137.2355°
True anomaly
222.88932°
Mean anomaly
222.948°
Eccentric anomaly
222.91866°
Mean motion
3.86753 °/min
Orbital period
93.08 mins
BSTAR
0.00036228
Loading maneuver chart data...
Computing Atmospheric mass density...

Documentation

Showing up to 5 results
|